owner,sensor,date,latitude,longitude,sea_surface_height_above_sea_level,qcFlag 
COMPS,ioos:station:USF.COMPS:ARP:1,2011-07-01T00:00:00Z,28.4330,-82.6670,-0.411,1111122 
COMPS,ioos:station:USF.COMPS:ARP:1,2011-07-01T00:06:00Z,28.4330,-82.6670,-0.42,1111122 
COMPS,ioos:station:USF.COMPS:ARP:1,2011-07-01T00:12:00Z,28.4330,-82.6670,-0.428,1111122 
COMPS,ioos:station:USF.COMPS:ARP:1,2011-07-01T00:18:00Z,28.4330,-82.6670,-0.436,1111122 
COMPS,ioos:station:USF.COMPS:ARP:1,2011-07-01T00:24:00Z,28.4330,-82.6670,-0.443,1111122 
COMPS,ioos:station:USF.COMPS:ARP:1,2011-07-01T00:30:00Z,28.4330,-82.6670,-0.45,1111122 
COMPS,ioos:station:USF.COMPS:ARP:1,2011-07-01T00:36:00Z,28.4330,-82.6670,-0.457,1111122 
COMPS,ioos:station:USF.COMPS:ARP:1,2011-07-01T00:42:00Z,28.4330,-82.6670,-0.464,1111122 
COMPS,ioos:station:USF.COMPS:ARP:1,2011-07-01T00:48:00Z,28.4330,-82.6670,-0.47,1111122 
COMPS,ioos:station:USF.COMPS:ARP:1,2011-07-01T00:54:00Z,28.4330,-82.6670,-0.477,1111122 
COMPS,ioos:station:USF.COMPS:ARP:1,2011-07-01T01:00:00Z,28.4330,-82.6670,-0.483,1111122 
COMPS,ioos:station:USF.COMPS:ARP:1,2011-07-01T01:06:00Z,28.4330,-82.6670,-0.489,1111122 
COMPS,ioos:station:USF.COMPS:ARP:1,2011-07-01T01:12:00Z,28.4330,-82.6670,-0.494,1111122 
COMPS,ioos:station:USF.COMPS:ARP:1,2011-07-01T01:18:00Z,28.4330,-82.6670,-0.5,1111122 
COMPS,ioos:station:USF.COMPS:ARP:1,2011-07-01T01:24:00Z,28.4330,-82.6670,-0.505,1111122 
COMPS,ioos:station:USF.COMPS:ARP:1,2011-07-01T01:30:00Z,28.4330,-82.6670,-0.51,1111122 
COMPS,ioos:station:USF.COMPS:ARP:1,2011-07-01T01:36:00Z,28.4330,-82.6670,-0.515,1111122 
COMPS,ioos:station:USF.COMPS:ARP:1,2011-07-01T01:42:00Z,28.4330,-82.6670,-0.52,1111122 
COMPS,ioos:station:USF.COMPS:ARP:1,2011-07-01T01:48:00Z,28.4330,-82.6670,-0.524,1111122 
COMPS,ioos:station:USF.COMPS:ARP:1,2011-07-01T01:54:00Z,28.4330,-82.6670,-0.529,1111122 
COMPS,ioos:station:USF.COMPS:ARP:1,2011-07-01T02:00:00Z,28.4330,-82.6670,-0.533,1111122 
COMPS,ioos:station:USF.COMPS:ARP:1,2011-07-01T02:06:00Z,28.4330,-82.6670,-0.537,1111122 
COMPS,ioos:station:USF.COMPS:ARP:1,2011-07-01T02:12:00Z,28.4330,-82.6670,-0.54,1111122 
COMPS,ioos:station:USF.COMPS:ARP:1,2011-07-01T02:18:00Z,28.4330,-82.6670,-0.543,1111122 
COMPS,ioos:station:USF.COMPS:ARP:1,2011-07-01T02:24:00Z,28.4330,-82.6670,-0.545,1111122 
COMPS,ioos:station:USF.COMPS:ARP:1,2011-07-01T02:30:00Z,28.4330,-82.6670,-0.547,1111122 
COMPS,ioos:station:USF.COMPS:ARP:1,2011-07-01T02:36:00Z,28.4330,-82.6670,-0.549,1111122 
COMPS,ioos:station:USF.COMPS:ARP:1,2011-07-01T02:42:00Z,28.4330,-82.6670,-0.549,1111122 
COMPS,ioos:station:USF.COMPS:ARP:1,2011-07-01T02:48:00Z,28.4330,-82.6670,-0.549,1111122 
COMPS,ioos:station:USF.COMPS:ARP:1,2011-07-01T02:54:00Z,28.4330,-82.6670,-0.547,1111122 
COMPS,ioos:station:USF.COMPS:ARP:1,2011-07-01T03:00:00Z,28.4330,-82.6670,-0.544,1111122 
COMPS,ioos:station:USF.COMPS:ARP:1,2011-07-01T03:06:00Z,28.4330,-82.6670,-0.541,1111122 
COMPS,ioos:station:USF.COMPS:ARP:1,2011-07-01T03:12:00Z,28.4330,-82.6670,-0.537,1111122 
COMPS,ioos:station:USF.COMPS:ARP:1,2011-07-01T03:18:00Z,28.4330,-82.6670,-0.531,1111122 
COMPS,ioos:station:USF.COMPS:ARP:1,2011-07-01T03:24:00Z,28.4330,-82.6670,-0.524,1111122 
COMPS,ioos:station:USF.COMPS:ARP:1,2011-07-01T03:30:00Z,28.4330,-82.6670,-0.516,1111122 
COMPS,ioos:station:USF.COMPS:ARP:1,2011-07-01T03:36:00Z,28.4330,-82.6670,-0.507,1111122 
COMPS,ioos:station:USF.COMPS:ARP:1,2011-07-01T03:42:00Z,28.4330,-82.6670,-0.496,1111122 
COMPS,ioos:station:USF.COMPS:ARP:1,2011-07-01T03:48:00Z,28.4330,-82.6670,-0.482,1111122 
COMPS,ioos:station:USF.COMPS:ARP:1,2011-07-01T03:54:00Z,28.4330,-82.6670,-0.467,1111122 
COMPS,ioos:station:USF.COMPS:ARP:1,2011-07-01T04:00:00Z,28.4330,-82.6670,-0.45,1111122 
COMPS,ioos:station:USF.COMPS:ARP:1,2011-07-01T04:06:00Z,28.4330,-82.6670,-0.431,1111122 
COMPS,ioos:station:USF.COMPS:ARP:1,2011-07-01T04:12:00Z,28.4330,-82.6670,-0.41,1111122 
COMPS,ioos:station:USF.COMPS:ARP:1,2011-07-01T04:18:00Z,28.4330,-82.6670,-0.388,1111122 
COMPS,ioos:station:USF.COMPS:ARP:1,2011-07-01T04:24:00Z,28.4330,-82.6670,-0.362,1111122 
COMPS,ioos:station:USF.COMPS:ARP:1,2011-07-01T04:30:00Z,28.4330,-82.6670,-0.334,1111122 
COMPS,ioos:station:USF.COMPS:ARP:1,2011-07-01T04:36:00Z,28.4330,-82.6670,-0.304,1111122 
COMPS,ioos:station:USF.COMPS:ARP:1,2011-07-01T04:42:00Z,28.4330,-82.6670,-0.273,1111122 
COMPS,ioos:station:USF.COMPS:ARP:1,2011-07-01T04:48:00Z,28.4330,-82.6670,-0.238,1111122 
COMPS,ioos:station:USF.COMPS:ARP:1,2011-07-01T04:54:00Z,28.4330,-82.6670,-0.204,1111122 
COMPS,ioos:station:USF.COMPS:ARP:1,2011-07-01T05:00:00Z,28.4330,-82.6670,-0.167,1111122 
COMPS,ioos:station:USF.COMPS:ARP:1,2011-07-01T05:06:00Z,28.4330,-82.6670,-0.13,1111122 
COMPS,ioos:station:USF.COMPS:ARP:1,2011-07-01T05:12:00Z,28.4330,-82.6670,-0.093,1111122 
COMPS,ioos:station:USF.COMPS:ARP:1,2011-07-01T05:18:00Z,28.4330,-82.6670,-0.056,1111122 
COMPS,ioos:station:USF.COMPS:ARP:1,2011-07-01T05:24:00Z,28.4330,-82.6670,-0.02,1111122 
COMPS,ioos:station:USF.COMPS:ARP:1,2011-07-01T05:30:00Z,28.4330,-82.6670,0.014,1111122 
COMPS,ioos:station:USF.COMPS:ARP:1,2011-07-01T05:36:00Z,28.4330,-82.6670,0.047,1111122 
COMPS,ioos:station:USF.COMPS:ARP:1,2011-07-01T05:42:00Z,28.4330,-82.6670,0.076,1111122 
COMPS,ioos:station:USF.COMPS:ARP:1,2011-07-01T05:48:00Z,28.4330,-82.6670,0.101,1111122 
COMPS,ioos:station:USF.COMPS:ARP:1,2011-07-01T05:54:00Z,28.4330,-82.6670,0.123,1111122 
COMPS,ioos:station:USF.COMPS:ARP:1,2011-07-01T06:00:00Z,28.4330,-82.6670,0.144,1111122 
COMPS,ioos:station:USF.COMPS:ARP:1,2011-07-01T06:06:00Z,28.4330,-82.6670,0.164,1111122 
COMPS,ioos:station:USF.COMPS:ARP:1,2011-07-01T06:12:00Z,28.4330,-82.6670,0.182,1111122 
COMPS,ioos:station:USF.COMPS:ARP:1,2011-07-01T06:18:00Z,28.4330,-82.6670,0.2,1111122 
COMPS,ioos:station:USF.COMPS:ARP:1,2011-07-01T06:24:00Z,28.4330,-82.6670,0.218,1111122 
COMPS,ioos:station:USF.COMPS:ARP:1,2011-07-01T06:30:00Z,28.4330,-82.6670,0.235,1111122 
COMPS,ioos:station:USF.COMPS:ARP:1,2011-07-01T06:36:00Z,28.4330,-82.6670,0.249,1111122 
COMPS,ioos:station:USF.COMPS:ARP:1,2011-07-01T06:42:00Z,28.4330,-82.6670,0.258,1111122 
COMPS,ioos:station:USF.COMPS:ARP:1,2011-07-01T06:48:00Z,28.4330,-82.6670,0.27,1111122 
COMPS,ioos:station:USF.COMPS:ARP:1,2011-07-01T06:54:00Z,28.4330,-82.6670,0.279,1111122 
COMPS,ioos:station:USF.COMPS:ARP:1,2011-07-01T07:00:00Z,28.4330,-82.6670,0.284,1111122 
COMPS,ioos:station:USF.COMPS:ARP:1,2011-07-01T07:06:00Z,28.4330,-82.6670,0.285,1111122 
COMPS,ioos:station:USF.COMPS:ARP:1,2011-07-01T07:12:00Z,28.4330,-82.6670,0.28,1111122 
COMPS,ioos:station:USF.COMPS:ARP:1,2011-07-01T07:18:00Z,28.4330,-82.6670,0.267,1111122 
COMPS,ioos:station:USF.COMPS:ARP:1,2011-07-01T07:24:00Z,28.4330,-82.6670,0.256,1111122 
COMPS,ioos:station:USF.COMPS:ARP:1,2011-07-01T07:30:00Z,28.4330,-82.6670,0.252,1111122 
COMPS,ioos:station:USF.COMPS:ARP:1,2011-07-01T07:36:00Z,28.4330,-82.6670,0.248,1111122 
COMPS,ioos:station:USF.COMPS:ARP:1,2011-07-01T07:42:00Z,28.4330,-82.6670,0.248,1111122 
COMPS,ioos:station:USF.COMPS:ARP:1,2011-07-01T07:48:00Z,28.4330,-82.6670,0.252,1111122 
COMPS,ioos:station:USF.COMPS:ARP:1,2011-07-01T07:54:00Z,28.4330,-82.6670,0.262,1111122 
COMPS,ioos:station:USF.COMPS:ARP:1,2011-07-01T08:00:00Z,28.4330,-82.6670,0.271,1111122 
COMPS,ioos:station:USF.COMPS:ARP:1,2011-07-01T08:06:00Z,28.4330,-82.6670,0.274,1111122 
COMPS,ioos:station:USF.COMPS:ARP:1,2011-07-01T08:12:00Z,28.4330,-82.6670,0.272,1111122 
COMPS,ioos:station:USF.COMPS:ARP:1,2011-07-01T08:18:00Z,28.4330,-82.6670,0.263,1111122 
COMPS,ioos:station:USF.COMPS:ARP:1,2011-07-01T08:24:00Z,28.4330,-82.6670,0.256,1111122 
COMPS,ioos:station:USF.COMPS:ARP:1,2011-07-01T08:30:00Z,28.4330,-82.6670,0.239,1111122 
COMPS,ioos:station:USF.COMPS:ARP:1,2011-07-01T08:36:00Z,28.4330,-82.6670,0.217,1111122 
COMPS,ioos:station:USF.COMPS:ARP:1,2011-07-01T08:42:00Z,28.4330,-82.6670,0.2,1111122 
COMPS,ioos:station:USF.COMPS:ARP:1,2011-07-01T08:48:00Z,28.4330,-82.6670,0.187,1111122 
COMPS,ioos:station:USF.COMPS:ARP:1,2011-07-01T08:54:00Z,28.4330,-82.6670,0.171,1111122 
COMPS,ioos:station:USF.COMPS:ARP:1,2011-07-01T09:00:00Z,28.4330,-82.6670,0.156,1111122 
COMPS,ioos:station:USF.COMPS:ARP:1,2011-07-01T09:06:00Z,28.4330,-82.6670,0.144,1111122 
COMPS,ioos:station:USF.COMPS:ARP:1,2011-07-01T09:12:00Z,28.4330,-82.6670,0.132,1111122 
COMPS,ioos:station:USF.COMPS:ARP:1,2011-07-01T09:18:00Z,28.4330,-82.6670,0.122,1111122 
COMPS,ioos:station:USF.COMPS:ARP:1,2011-07-01T09:24:00Z,28.4330,-82.6670,0.111,1111122 
COMPS,ioos:station:USF.COMPS:ARP:1,2011-07-01T09:30:00Z,28.4330,-82.6670,0.1,1111122 
COMPS,ioos:station:USF.COMPS:ARP:1,2011-07-01T09:36:00Z,28.4330,-82.6670,0.092,1111122 
COMPS,ioos:station:USF.COMPS:ARP:1,2011-07-01T09:42:00Z,28.4330,-82.6670,0.083,1111122 
COMPS,ioos:station:USF.COMPS:ARP:1,2011-07-01T09:48:00Z,28.4330,-82.6670,0.074,1111122 
COMPS,ioos:station:USF.COMPS:ARP:1,2011-07-01T09:54:00Z,28.4330,-82.6670,0.062,1111122 
COMPS,ioos:station:USF.COMPS:ARP:1,2011-07-01T10:00:00Z,28.4330,-82.6670,0.051,1111122 
COMPS,ioos:station:USF.COMPS:ARP:1,2011-07-01T10:06:00Z,28.4330,-82.6670,0.035,1111122 
COMPS,ioos:station:USF.COMPS:ARP:1,2011-07-01T10:12:00Z,28.4330,-82.6670,0.022,1111122 
COMPS,ioos:station:USF.COMPS:ARP:1,2011-07-01T10:18:00Z,28.4330,-82.6670,0.007,1111122 
COMPS,ioos:station:USF.COMPS:ARP:1,2011-07-01T10:24:00Z,28.4330,-82.6670,-0.005,1111122 
COMPS,ioos:station:USF.COMPS:ARP:1,2011-07-01T10:30:00Z,28.4330,-82.6670,-0.017,1111122 
COMPS,ioos:station:USF.COMPS:ARP:1,2011-07-01T10:36:00Z,28.4330,-82.6670,-0.03,1111122 
COMPS,ioos:station:USF.COMPS:ARP:1,2011-07-01T10:42:00Z,28.4330,-82.6670,-0.041,1111122 
COMPS,ioos:station:USF.COMPS:ARP:1,2011-07-01T10:48:00Z,28.4330,-82.6670,-0.053,1111122 
COMPS,ioos:station:USF.COMPS:ARP:1,2011-07-01T10:54:00Z,28.4330,-82.6670,-0.066,1111122 
COMPS,ioos:station:USF.COMPS:ARP:1,2011-07-01T11:00:00Z,28.4330,-82.6670,-0.079,1111122 
COMPS,ioos:station:USF.COMPS:ARP:1,2011-07-01T11:06:00Z,28.4330,-82.6670,-0.091,1111122 
COMPS,ioos:station:USF.COMPS:ARP:1,2011-07-01T11:12:00Z,28.4330,-82.6670,-0.102,1111122 
COMPS,ioos:station:USF.COMPS:ARP:1,2011-07-01T11:18:00Z,28.4330,-82.6670,-0.114,1111122 
COMPS,ioos:station:USF.COMPS:ARP:1,2011-07-01T11:24:00Z,28.4330,-82.6670,-0.125,1111122 
COMPS,ioos:station:USF.COMPS:ARP:1,2011-07-01T11:30:00Z,28.4330,-82.6670,-0.137,1111122 
COMPS,ioos:station:USF.COMPS:ARP:1,2011-07-01T11:36:00Z,28.4330,-82.6670,-0.146,1111122 
COMPS,ioos:station:USF.COMPS:ARP:1,2011-07-01T11:42:00Z,28.4330,-82.6670,-0.155,1111122 
COMPS,ioos:station:USF.COMPS:ARP:1,2011-07-01T11:48:00Z,28.4330,-82.6670,-0.165,1111122 
COMPS,ioos:station:USF.COMPS:ARP:1,2011-07-01T11:54:00Z,28.4330,-82.6670,-0.176,1111122 
COMPS,ioos:station:USF.COMPS:ARP:1,2011-07-01T12:00:00Z,28.4330,-82.6670,-0.184,1111122 
COMPS,ioos:station:USF.COMPS:ARP:1,2011-07-01T12:06:00Z,28.4330,-82.6670,-0.191,1111122 
COMPS,ioos:station:USF.COMPS:ARP:1,2011-07-01T12:12:00Z,28.4330,-82.6670,-0.199,1111122 
COMPS,ioos:station:USF.COMPS:ARP:1,2011-07-01T12:18:00Z,28.4330,-82.6670,-0.203,1111122 
COMPS,ioos:station:USF.COMPS:ARP:1,2011-07-01T12:24:00Z,28.4330,-82.6670,-0.206,1111122 
COMPS,ioos:station:USF.COMPS:ARP:1,2011-07-01T12:30:00Z,28.4330,-82.6670,-0.209,1111122 
COMPS,ioos:station:USF.COMPS:ARP:1,2011-07-01T12:36:00Z,28.4330,-82.6670,-0.207,1111122 
COMPS,ioos:station:USF.COMPS:ARP:1,2011-07-01T12:42:00Z,28.4330,-82.6670,-0.194,1111122 
COMPS,ioos:station:USF.COMPS:ARP:1,2011-07-01T12:48:00Z,28.4330,-82.6670,-0.182,1111122 
COMPS,ioos:station:USF.COMPS:ARP:1,2011-07-01T12:54:00Z,28.4330,-82.6670,-0.166,1111122 
COMPS,ioos:station:USF.COMPS:ARP:1,2011-07-01T13:00:00Z,28.4330,-82.6670,-0.147,1111122 
COMPS,ioos:station:USF.COMPS:ARP:1,2011-07-01T13:06:00Z,28.4330,-82.6670,-0.129,1111122 
COMPS,ioos:station:USF.COMPS:ARP:1,2011-07-01T13:12:00Z,28.4330,-82.6670,-0.114,1111122 
COMPS,ioos:station:USF.COMPS:ARP:1,2011-07-01T13:18:00Z,28.4330,-82.6670,-0.097,1111122 
COMPS,ioos:station:USF.COMPS:ARP:1,2011-07-01T13:24:00Z,28.4330,-82.6670,-0.085,1111122 
COMPS,ioos:station:USF.COMPS:ARP:1,2011-07-01T13:30:00Z,28.4330,-82.6670,-0.074,1111122 
COMPS,ioos:station:USF.COMPS:ARP:1,2011-07-01T13:36:00Z,28.4330,-82.6670,-0.066,1111122 
COMPS,ioos:station:USF.COMPS:ARP:1,2011-07-01T13:42:00Z,28.4330,-82.6670,-0.06,1111122 
COMPS,ioos:station:USF.COMPS:ARP:1,2011-07-01T13:48:00Z,28.4330,-82.6670,-0.057,1111122 
COMPS,ioos:station:USF.COMPS:ARP:1,2011-07-01T13:54:00Z,28.4330,-82.6670,-0.052,1111122 
COMPS,ioos:station:USF.COMPS:ARP:1,2011-07-01T14:00:00Z,28.4330,-82.6670,-0.042,1111122 
COMPS,ioos:station:USF.COMPS:ARP:1,2011-07-01T14:06:00Z,28.4330,-82.6670,-0.032,1111122 
COMPS,ioos:station:USF.COMPS:ARP:1,2011-07-01T14:12:00Z,28.4330,-82.6670,-0.016,1111122 
COMPS,ioos:station:USF.COMPS:ARP:1,2011-07-01T14:18:00Z,28.4330,-82.6670,0.002,1111122 
COMPS,ioos:station:USF.COMPS:ARP:1,2011-07-01T14:24:00Z,28.4330,-82.6670,0.024,1111122 
COMPS,ioos:station:USF.COMPS:ARP:1,2011-07-01T14:30:00Z,28.4330,-82.6670,0.046,1111122 
COMPS,ioos:station:USF.COMPS:ARP:1,2011-07-01T14:36:00Z,28.4330,-82.6670,0.066,1111122 
COMPS,ioos:station:USF.COMPS:ARP:1,2011-07-01T14:42:00Z,28.4330,-82.6670,0.088,1111122 
COMPS,ioos:station:USF.COMPS:ARP:1,2011-07-01T14:48:00Z,28.4330,-82.6670,0.109,1111122 
COMPS,ioos:station:USF.COMPS:ARP:1,2011-07-01T14:54:00Z,28.4330,-82.6670,0.129,1111122 
COMPS,ioos:station:USF.COMPS:ARP:1,2011-07-01T15:00:00Z,28.4330,-82.6670,0.15,1111122 
COMPS,ioos:station:USF.COMPS:ARP:1,2011-07-01T15:06:00Z,28.4330,-82.6670,0.17,1111122 
COMPS,ioos:station:USF.COMPS:ARP:1,2011-07-01T15:12:00Z,28.4330,-82.6670,0.192,1111122 
COMPS,ioos:station:USF.COMPS:ARP:1,2011-07-01T15:18:00Z,28.4330,-82.6670,0.213,1111122 
COMPS,ioos:station:USF.COMPS:ARP:1,2011-07-01T15:24:00Z,28.4330,-82.6670,0.233,1111122 
COMPS,ioos:station:USF.COMPS:ARP:1,2011-07-01T15:30:00Z,28.4330,-82.6670,0.253,1111122 
COMPS,ioos:station:USF.COMPS:ARP:1,2011-07-01T15:36:00Z,28.4330,-82.6670,0.273,1111122 
COMPS,ioos:station:USF.COMPS:ARP:1,2011-07-01T15:42:00Z,28.4330,-82.6670,0.296,1111122 
COMPS,ioos:station:USF.COMPS:ARP:1,2011-07-01T15:48:00Z,28.4330,-82.6670,0.316,1111122 
COMPS,ioos:station:USF.COMPS:ARP:1,2011-07-01T15:54:00Z,28.4330,-82.6670,0.337,1111122 
COMPS,ioos:station:USF.COMPS:ARP:1,2011-07-01T16:00:00Z,28.4330,-82.6670,0.359,1111122 
COMPS,ioos:station:USF.COMPS:ARP:1,2011-07-01T16:06:00Z,28.4330,-82.6670,0.379,1111122 
COMPS,ioos:station:USF.COMPS:ARP:1,2011-07-01T16:12:00Z,28.4330,-82.6670,0.4,1111122 
COMPS,ioos:station:USF.COMPS:ARP:1,2011-07-01T16:18:00Z,28.4330,-82.6670,0.418,1111122 
COMPS,ioos:station:USF.COMPS:ARP:1,2011-07-01T16:24:00Z,28.4330,-82.6670,0.438,1111122 
COMPS,ioos:station:USF.COMPS:ARP:1,2011-07-01T16:30:00Z,28.4330,-82.6670,0.457,1111122 
COMPS,ioos:station:USF.COMPS:ARP:1,2011-07-01T16:36:00Z,28.4330,-82.6670,0.475,1111122 
COMPS,ioos:station:USF.COMPS:ARP:1,2011-07-01T16:42:00Z,28.4330,-82.6670,0.492,1111122 
COMPS,ioos:station:USF.COMPS:ARP:1,2011-07-01T16:48:00Z,28.4330,-82.6670,0.507,1111122 
COMPS,ioos:station:USF.COMPS:ARP:1,2011-07-01T16:54:00Z,28.4330,-82.6670,0.52,1111122 
COMPS,ioos:station:USF.COMPS:ARP:1,2011-07-01T17:00:00Z,28.4330,-82.6670,0.533,1111122 
COMPS,ioos:station:USF.COMPS:ARP:1,2011-07-01T17:06:00Z,28.4330,-82.6670,0.545,1111122 
COMPS,ioos:station:USF.COMPS:ARP:1,2011-07-01T17:12:00Z,28.4330,-82.6670,0.557,1111122 
COMPS,ioos:station:USF.COMPS:ARP:1,2011-07-01T17:18:00Z,28.4330,-82.6670,0.568,1111122 
COMPS,ioos:station:USF.COMPS:ARP:1,2011-07-01T17:24:00Z,28.4330,-82.6670,0.58,1111122 
COMPS,ioos:station:USF.COMPS:ARP:1,2011-07-01T17:30:00Z,28.4330,-82.6670,0.593,1111122 
COMPS,ioos:station:USF.COMPS:ARP:1,2011-07-01T17:36:00Z,28.4330,-82.6670,0.604,1111122 
COMPS,ioos:station:USF.COMPS:ARP:1,2011-07-01T17:42:00Z,28.4330,-82.6670,0.612,1111122 
COMPS,ioos:station:USF.COMPS:ARP:1,2011-07-01T17:48:00Z,28.4330,-82.6670,0.616,1111122 
COMPS,ioos:station:USF.COMPS:ARP:1,2011-07-01T17:54:00Z,28.4330,-82.6670,0.62,1111122 
COMPS,ioos:station:USF.COMPS:ARP:1,2011-07-01T18:00:00Z,28.4330,-82.6670,0.614,1111122 
COMPS,ioos:station:USF.COMPS:ARP:1,2011-07-01T18:06:00Z,28.4330,-82.6670,0.607,1111122 
COMPS,ioos:station:USF.COMPS:ARP:1,2011-07-01T18:12:00Z,28.4330,-82.6670,0.6,1111122 
COMPS,ioos:station:USF.COMPS:ARP:1,2011-07-01T18:18:00Z,28.4330,-82.6670,0.592,1111122 
COMPS,ioos:station:USF.COMPS:ARP:1,2011-07-01T18:24:00Z,28.4330,-82.6670,0.577,1111122 
COMPS,ioos:station:USF.COMPS:ARP:1,2011-07-01T18:30:00Z,28.4330,-82.6670,0.579,1111122 
COMPS,ioos:station:USF.COMPS:ARP:1,2011-07-01T18:36:00Z,28.4330,-82.6670,0.564,1111122 
COMPS,ioos:station:USF.COMPS:ARP:1,2011-07-01T18:42:00Z,28.4330,-82.6670,0.562,1111122 
COMPS,ioos:station:USF.COMPS:ARP:1,2011-07-01T18:48:00Z,28.4330,-82.6670,0.551,1111122 
COMPS,ioos:station:USF.COMPS:ARP:1,2011-07-01T18:54:00Z,28.4330,-82.6670,0.544,1111122 
COMPS,ioos:station:USF.COMPS:ARP:1,2011-07-01T19:00:00Z,28.4330,-82.6670,0.53,1111122 
COMPS,ioos:station:USF.COMPS:ARP:1,2011-07-01T19:06:00Z,28.4330,-82.6670,0.513,1111122 
COMPS,ioos:station:USF.COMPS:ARP:1,2011-07-01T19:12:00Z,28.4330,-82.6670,0.5,1111122 
COMPS,ioos:station:USF.COMPS:ARP:1,2011-07-01T19:18:00Z,28.4330,-82.6670,0.48,1111122 
COMPS,ioos:station:USF.COMPS:ARP:1,2011-07-01T19:24:00Z,28.4330,-82.6670,0.46,1111122 
COMPS,ioos:station:USF.COMPS:ARP:1,2011-07-01T19:30:00Z,28.4330,-82.6670,0.44,1111122 
COMPS,ioos:station:USF.COMPS:ARP:1,2011-07-01T19:36:00Z,28.4330,-82.6670,0.423,1111122 
COMPS,ioos:station:USF.COMPS:ARP:1,2011-07-01T19:42:00Z,28.4330,-82.6670,0.407,1111122 
COMPS,ioos:station:USF.COMPS:ARP:1,2011-07-01T19:48:00Z,28.4330,-82.6670,0.39,1111122 
COMPS,ioos:station:USF.COMPS:ARP:1,2011-07-01T19:54:00Z,28.4330,-82.6670,0.37,1111122 
COMPS,ioos:station:USF.COMPS:ARP:1,2011-07-01T20:00:00Z,28.4330,-82.6670,0.355,1111122 
COMPS,ioos:station:USF.COMPS:ARP:1,2011-07-01T20:06:00Z,28.4330,-82.6670,0.337,1111122 
COMPS,ioos:station:USF.COMPS:ARP:1,2011-07-01T20:12:00Z,28.4330,-82.6670,0.317,1111122 
COMPS,ioos:station:USF.COMPS:ARP:1,2011-07-01T20:18:00Z,28.4330,-82.6670,0.302,1111122 
COMPS,ioos:station:USF.COMPS:ARP:1,2011-07-01T20:24:00Z,28.4330,-82.6670,0.287,1111122 
COMPS,ioos:station:USF.COMPS:ARP:1,2011-07-01T20:30:00Z,28.4330,-82.6670,0.269,1111122 
COMPS,ioos:station:USF.COMPS:ARP:1,2011-07-01T20:36:00Z,28.4330,-82.6670,0.249,1111122 
COMPS,ioos:station:USF.COMPS:ARP:1,2011-07-01T20:42:00Z,28.4330,-82.6670,0.231,1111122 
COMPS,ioos:station:USF.COMPS:ARP:1,2011-07-01T20:48:00Z,28.4330,-82.6670,0.213,1111122 
COMPS,ioos:station:USF.COMPS:ARP:1,2011-07-01T20:54:00Z,28.4330,-82.6670,0.196,1111122 
COMPS,ioos:station:USF.COMPS:ARP:1,2011-07-01T21:00:00Z,28.4330,-82.6670,0.178,1111122 
COMPS,ioos:station:USF.COMPS:ARP:1,2011-07-01T21:06:00Z,28.4330,-82.6670,0.16,1111122 
COMPS,ioos:station:USF.COMPS:ARP:1,2011-07-01T21:12:00Z,28.4330,-82.6670,0.141,1111122 
COMPS,ioos:station:USF.COMPS:ARP:1,2011-07-01T21:18:00Z,28.4330,-82.6670,0.121,1111122 
COMPS,ioos:station:USF.COMPS:ARP:1,2011-07-01T21:24:00Z,28.4330,-82.6670,0.102,1111122 
COMPS,ioos:station:USF.COMPS:ARP:1,2011-07-01T21:30:00Z,28.4330,-82.6670,0.082,1111122 
COMPS,ioos:station:USF.COMPS:ARP:1,2011-07-01T21:36:00Z,28.4330,-82.6670,0.061,1111122 
COMPS,ioos:station:USF.COMPS:ARP:1,2011-07-01T21:42:00Z,28.4330,-82.6670,0.04,1111122 
COMPS,ioos:station:USF.COMPS:ARP:1,2011-07-01T21:48:00Z,28.4330,-82.6670,0.02,1111122 
COMPS,ioos:station:USF.COMPS:ARP:1,2011-07-01T21:54:00Z,28.4330,-82.6670,-0.003,1111122 
COMPS,ioos:station:USF.COMPS:ARP:1,2011-07-01T22:00:00Z,28.4330,-82.6670,-0.02,1111122 
COMPS,ioos:station:USF.COMPS:ARP:1,2011-07-01T22:06:00Z,28.4330,-82.6670,-0.034,1111122 
COMPS,ioos:station:USF.COMPS:ARP:1,2011-07-01T22:12:00Z,28.4330,-82.6670,-0.057,1111122 
COMPS,ioos:station:USF.COMPS:ARP:1,2011-07-01T22:18:00Z,28.4330,-82.6670,-0.078,1111122 
COMPS,ioos:station:USF.COMPS:ARP:1,2011-07-01T22:24:00Z,28.4330,-82.6670,-0.099,1111122 
COMPS,ioos:station:USF.COMPS:ARP:1,2011-07-01T22:30:00Z,28.4330,-82.6670,-0.119,1111122 
COMPS,ioos:station:USF.COMPS:ARP:1,2011-07-01T22:36:00Z,28.4330,-82.6670,-0.137,1111122 
COMPS,ioos:station:USF.COMPS:ARP:1,2011-07-01T22:42:00Z,28.4330,-82.6670,-0.156,1111122 
COMPS,ioos:station:USF.COMPS:ARP:1,2011-07-01T22:48:00Z,28.4330,-82.6670,-0.173,1111122 
COMPS,ioos:station:USF.COMPS:ARP:1,2011-07-01T22:54:00Z,28.4330,-82.6670,-0.189,1111122 
COMPS,ioos:station:USF.COMPS:ARP:1,2011-07-01T23:00:00Z,28.4330,-82.6670,-0.206,1111122 
COMPS,ioos:station:USF.COMPS:ARP:1,2011-07-01T23:06:00Z,28.4330,-82.6670,-0.222,1111122 
COMPS,ioos:station:USF.COMPS:ARP:1,2011-07-01T23:12:00Z,28.4330,-82.6670,-0.237,1111122 
COMPS,ioos:station:USF.COMPS:ARP:1,2011-07-01T23:18:00Z,28.4330,-82.6670,-0.252,1111122 
COMPS,ioos:station:USF.COMPS:ARP:1,2011-07-01T23:24:00Z,28.4330,-82.6670,-0.266,1111122 
COMPS,ioos:station:USF.COMPS:ARP:1,2011-07-01T23:30:00Z,28.4330,-82.6670,-0.279,1111122 
COMPS,ioos:station:USF.COMPS:ARP:1,2011-07-01T23:36:00Z,28.4330,-82.6670,-0.292,1111122 
COMPS,ioos:station:USF.COMPS:ARP:1,2011-07-01T23:42:00Z,28.4330,-82.6670,-0.305,1111122 
COMPS,ioos:station:USF.COMPS:ARP:1,2011-07-01T23:48:00Z,28.4330,-82.6670,-0.317,1111122 
COMPS,ioos:station:USF.COMPS:ARP:1,2011-07-01T23:54:00Z,28.4330,-82.6670,-0.33,1111122 
COMPS,ioos:station:USF.COMPS:ARP:1,2011-07-02T00:00:00Z,28.4330,-82.6670,-0.342,1111122 
COMPS,ioos:station:USF.COMPS:ARP:1,2011-07-02T00:06:00Z,28.4330,-82.6670,-0.353,1111122 
COMPS,ioos:station:USF.COMPS:ARP:1,2011-07-02T00:12:00Z,28.4330,-82.6670,-0.363,1111122 
COMPS,ioos:station:USF.COMPS:ARP:1,2011-07-02T00:18:00Z,28.4330,-82.6670,-0.373,1111122 
COMPS,ioos:station:USF.COMPS:ARP:1,2011-07-02T00:24:00Z,28.4330,-82.6670,-0.383,1111122 
COMPS,ioos:station:USF.COMPS:ARP:1,2011-07-02T00:30:00Z,28.4330,-82.6670,-0.392,1111122 
COMPS,ioos:station:USF.COMPS:ARP:1,2011-07-02T00:36:00Z,28.4330,-82.6670,-0.401,1111122 
COMPS,ioos:station:USF.COMPS:ARP:1,2011-07-02T00:42:00Z,28.4330,-82.6670,-0.41,1111122 
COMPS,ioos:station:USF.COMPS:ARP:1,2011-07-02T00:48:00Z,28.4330,-82.6670,-0.419,1111122 
COMPS,ioos:station:USF.COMPS:ARP:1,2011-07-02T00:54:00Z,28.4330,-82.6670,-0.427,1111122 
COMPS,ioos:station:USF.COMPS:ARP:1,2011-07-02T02:00:00Z,28.4330,-82.6670,-0.5,1111122 
COMPS,ioos:station:USF.COMPS:ARP:1,2011-07-02T02:06:00Z,28.4330,-82.6670,-0.506,1111122 
COMPS,ioos:station:USF.COMPS:ARP:1,2011-07-02T02:12:00Z,28.4330,-82.6670,-0.511,1111122 
COMPS,ioos:station:USF.COMPS:ARP:1,2011-07-02T02:18:00Z,28.4330,-82.6670,-0.515,1111122 
COMPS,ioos:station:USF.COMPS:ARP:1,2011-07-02T02:24:00Z,28.4330,-82.6670,-0.519,1111122 
COMPS,ioos:station:USF.COMPS:ARP:1,2011-07-02T02:30:00Z,28.4330,-82.6670,-0.524,1111122 
COMPS,ioos:station:USF.COMPS:ARP:1,2011-07-02T02:36:00Z,28.4330,-82.6670,-0.528,1111122 
COMPS,ioos:station:USF.COMPS:ARP:1,2011-07-02T02:42:00Z,28.4330,-82.6670,-0.532,1111122 
COMPS,ioos:station:USF.COMPS:ARP:1,2011-07-02T02:48:00Z,28.4330,-82.6670,-0.536,1111122 
COMPS,ioos:station:USF.COMPS:ARP:1,2011-07-02T02:54:00Z,28.4330,-82.6670,-0.539,1111122 
COMPS,ioos:station:USF.COMPS:ARP:1,2011-07-02T03:00:00Z,28.4330,-82.6670,-0.542,1111122 
COMPS,ioos:station:USF.COMPS:ARP:1,2011-07-02T03:06:00Z,28.4330,-82.6670,-0.545,1111122 
COMPS,ioos:station:USF.COMPS:ARP:1,2011-07-02T03:12:00Z,28.4330,-82.6670,-0.548,1111122 
COMPS,ioos:station:USF.COMPS:ARP:1,2011-07-02T03:18:00Z,28.4330,-82.6670,-0.55,1111122 
COMPS,ioos:station:USF.COMPS:ARP:1,2011-07-02T03:24:00Z,28.4330,-82.6670,-0.552,1111122 
COMPS,ioos:station:USF.COMPS:ARP:1,2011-07-02T03:30:00Z,28.4330,-82.6670,-0.552,1111122 
COMPS,ioos:station:USF.COMPS:ARP:1,2011-07-02T03:36:00Z,28.4330,-82.6670,-0.55,1111122 
COMPS,ioos:station:USF.COMPS:ARP:1,2011-07-02T03:42:00Z,28.4330,-82.6670,-0.546,1111122 
COMPS,ioos:station:USF.COMPS:ARP:1,2011-07-02T03:48:00Z,28.4330,-82.6670,-0.542,1111122 
COMPS,ioos:station:USF.COMPS:ARP:1,2011-07-02T03:54:00Z,28.4330,-82.6670,-0.538,1111122 